Location: Cucq
(50.4773°N, 1.6202°E)
Time: 06:20:04
(UTC+00:00)

Lacrosse 4 Rocket - Pass Details

Date: 07 August 2020
Orbit: 544 x 615 km, 68.0° (Epoch: 23 September)

Event Time Altitude Azimuth Distance (km) Brightness Sun altitude
Exits shadow 00:12:56 59° 96° (E) 669 1.6 -23.1°
Drops below altitude 10° 00:16:47 10° 40° (NE) 1,878 4.7 -23.1°
Sets 00:19:00 0° 37° (NE) 2,767 5.8 -23.0°
